| time (UTC) | temp F | wind direction | speed MPH | gust MPH | rain 1hr in | rain 24hr in | rain mn in | humidity % | barometer mb |
| 20260505171007 | 76 | 360 | 4.0 | 15.0 | 0.00 | 0.00 | 0.00 | 45 | 1003.8 |
| 20260505170509 | 76 | 360 | 5.0 | 15.0 | 0.00 | 0.00 | 0.00 | 45 | 1003.9 |
| 20260505170027 | 76 | 360 | 2.0 | 11.0 | 0.00 | 0.00 | 0.00 | 46 | 1004.0 |
| 20260505165511 | 75 | 360 | 5.0 | 11.0 | 0.00 | 0.00 | 0.00 | 46 | 1004.1 |
| 20260505165011 | 75 | 360 | 5.0 | 17.0 | 0.00 | 0.00 | 0.00 | 44 | 1004.0 |
| 20260505164521 | 75 | 360 | 6.0 | 17.0 | 0.00 | 0.00 | 0.00 | 46 | 1004.3 |
| 20260505164010 | 75 | 360 | 5.0 | 14.0 | 0.00 | 0.00 | 0.00 | 44 | 1004.3 |
| 20260505163508 | 75 | 360 | 3.0 | 14.0 | 0.00 | 0.00 | 0.00 | 47 | 1004.5 |
| 20260505163025 | 74 | 360 | 3.0 | 10.0 | 0.00 | 0.00 | 0.00 | 46 | 1004.7 |
| 20260505162509 | 74 | 360 | 5.0 | 11.0 | 0.00 | 0.00 | 0.00 | 45 | 1004.8 |
| 20260505162008 | 74 | 360 | 6.0 | 11.0 | 0.00 | 0.00 | 0.00 | 48 | 1004.9 |
| 20260505161510 | 73 | 360 | 3.0 | 14.0 | 0.00 | 0.00 | 0.00 | 46 | 1005.1 |
| 20260505161007 | 73 | 360 | 4.0 | 14.0 | 0.00 | 0.00 | 0.00 | 48 | 1005.1 |
| 20260505160512 | 73 | 360 | 2.0 | 9.0 | 0.00 | 0.00 | 0.00 | 51 | 1005.2 |
| 20260505153026 | 72 | 360 | 5.0 | 14.0 | 0.00 | 0.00 | 0.00 | 46 | 1005.8 |
| 20260505152508 | 72 | 360 | 4.0 | 9.0 | 0.00 | 0.00 | 0.00 | 50 | 1005.9 |
| 20260505152013 | 71 | 360 | 2.0 | 11.0 | 0.00 | 0.00 | 0.00 | 49 | 1006.0 |
| 20260505151532 | 71 | 360 | 4.0 | 12.0 | 0.00 | 0.00 | 0.00 | 49 | 1006.2 |
| 20260505151009 | 71 | 360 | 6.0 | 12.0 | 0.00 | 0.00 | 0.00 | 46 | 1006.1 |
| 20260505150510 | 71 | 360 | 3.0 | 11.0 | 0.00 | 0.00 | 0.00 | 49 | 1006.1 |
| 20260505140508 | 67 | 360 | 4.0 | 10.0 | 0.00 | 0.00 | 0.00 | 52 | 1005.9 |
| 20260505125004 | 60 | 360 | 0.0 | 10.0 | 0.00 | 0.00 | 0.00 | 66 | 1006.6 |
| 20260505124504 | 59 | 360 | 2.0 | 10.0 | 0.00 | 0.00 | 0.00 | 69 | 1006.7 |
| 20260505124004 | 59 | 360 | 3.0 | 8.0 | 0.00 | 0.00 | 0.00 | 66 | 1006.8 |
| 20260505123503 | 58 | 360 | 3.0 | 8.0 | 0.00 | 0.00 | 0.00 | 68 | 1006.9 |
| 20260505123004 | 57 | 360 | 1.0 | 8.0 | 0.00 | 0.00 | 0.00 | 71 | 1006.9 |
| 20260505122503 | 57 | 360 | 1.0 | 9.0 | 0.00 | 0.00 | 0.00 | 74 | 1006.9 |
| 20260505122003 | 56 | 360 | 3.0 | 9.0 | 0.00 | 0.00 | 0.00 | 75 | 1006.9 |
| 20260505121504 | 55 | 360 | 2.0 | 5.0 | 0.00 | 0.00 | 0.00 | 78 | 1007.0 |
| 20260505121003 | 54 | 360 | 2.0 | 3.0 | 0.00 | 0.00 | 0.00 | 81 | 1007.0 |
| 20260505120503 | 52 | 24 | 1.0 | 5.0 | 0.00 | 0.00 | 0.00 | 82 | 1007.0 |
| 20260505120026 | 51 | 360 | 1.0 | 8.0 | 0.00 | 0.00 | 0.00 | 84 | 1007.1 |
| 20260505115502 | 50 | 161 | 2.0 | 8.0 | 0.00 | 0.00 | 0.00 | 97 | 1007.0 |
| 20260505115003 | 49 | 360 | 0.0 | 2.0 | 0.00 | 0.00 | 0.00 | 97 | 1007.0 |
| 20260505114504 | 48 | 360 | 0.0 | 2.0 | 0.00 | 0.00 | 0.00 | 97 | 1007.1 |
| 20260505114004 | 47 | 360 | 1.0 | 2.0 | 0.00 | 0.00 | 0.00 | 97 | 1007.1 |
| 20260505113505 | 46 | 360 | 0.0 | 4.0 | 0.00 | 0.00 | 0.00 | 97 | 1007.1 |
| 20260505113007 | 44 | 360 | 1.0 | 4.0 | 0.00 | 0.00 | 0.00 | 97 | 1007.1 |
| 20260505112503 | 43 | 360 | 0.0 | 2.0 | 0.00 | 0.00 | 0.00 | 97 | 1007.2 |
| 20260505112003 | 43 | 28 | 0.0 | 2.0 | 0.00 | 0.00 | 0.00 | 97 | 1007.2 |
| 20260505111507 | 42 | 360 | 0.0 | 2.0 | 0.00 | 0.00 | 0.00 | 96 | 1007.2 |
| 20260505111006 | 41 | 360 | 0.0 | 2.0 | 0.00 | 0.00 | 0.00 | 96 | 1007.2 |
| 20260505110502 | 41 | 360 | 0.0 | 2.0 | 0.00 | 0.00 | 0.00 | 96 | 1007.1 |
| 20260505102006 | 35 | 360 | 0.0 | 0.0 | 0.00 | 0.00 | 0.00 | 95 | 1007.2 |
| 20260505101519 | 35 | 360 | 0.0 | 0.0 | 0.00 | 0.00 | 0.00 | 95 | 1007.2 |
| 20260505101003 | 35 | 360 | 0.0 | 2.0 | 0.00 | 0.00 | 0.00 | 95 | 1007.2 |
| 20260505100503 | 35 | 360 | 0.0 | 2.0 | 0.00 | 0.00 | 0.00 | 95 | 1007.1 |
| 20260505100019 | 34 | 360 | 0.0 | 2.0 | 0.00 | 0.00 | 0.00 | 95 | 1007.0 |
| 20260505095504 | 34 | 360 | 0.0 | 2.0 | 0.00 | 0.00 | 0.00 | 95 | 1007.0 |
| 20260505095003 | 34 | 360 | 0.0 | 0.0 | 0.00 | 0.00 | 0.00 | 95 | 1007.0 |
| 20260505094508 | 34 | 360 | 0.0 | 2.0 | 0.00 | 0.00 | 0.00 | 95 | 1007.1 |
| 20260505094004 | 34 | 360 | 0.0 | 2.0 | 0.00 | 0.00 | 0.00 | 95 | 1007.1 |
| 20260505093504 | 34 | 360 | 0.0 | 0.0 | 0.00 | 0.00 | 0.00 | 94 | 1007.0 |
| 20260505093008 | 34 | 360 | 0.0 | 0.0 | 0.00 | 0.00 | 0.00 | 94 | 1006.9 |
| 20260505092507 | 34 | 360 | 0.0 | 0.0 | 0.00 | 0.00 | 0.00 | 94 | 1007.0 |
| 20260505092007 | 34 | 360 | 0.0 | 0.0 | 0.00 | 0.00 | 0.00 | 94 | 1007.0 |
| 20260505091522 | 34 | 360 | 0.0 | 0.0 | 0.00 | 0.00 | 0.00 | 94 | 1007.0 |
| 20260505091005 | 34 | 360 | 0.0 | 0.0 | 0.00 | 0.00 | 0.00 | 94 | 1007.0 |
| 20260505090506 | 34 | 360 | 0.0 | 2.0 | 0.00 | 0.00 | 0.00 | 94 | 1007.0 |
| 20260505090026 | 34 | 360 | 0.0 | 2.0 | 0.00 | 0.00 | 0.00 | 94 | 1007.1 |
| 20260505085506 | 34 | 360 | 0.0 | 0.0 | 0.00 | 0.00 | 0.00 | 94 | 1007.1 |
| 20260505085004 | 34 | 360 | 0.0 | 2.0 | 0.00 | 0.00 | 0.00 | 94 | 1007.1 |
| 20260505084512 | 34 | 360 | 0.0 | 1.0 | 0.00 | 0.00 | 0.00 | 94 | 1007.1 |
| 20260505084004 | 34 | 360 | 0.0 | 0.0 | 0.00 | 0.00 | 0.00 | 94 | 1007.1 |
| 20260505083507 | 34 | 360 | 0.0 | 0.0 | 0.00 | 0.00 | 0.00 | 94 | 1007.2 |
| 20260505083011 | 34 | 360 | 0.0 | 0.0 | 0.00 | 0.00 | 0.00 | 94 | 1007.2 |
| 20260505082504 | 34 | 360 | 0.0 | 0.0 | 0.00 | 0.00 | 0.00 | 94 | 1007.2 |
| 20260505082007 | 34 | 360 | 0.0 | 0.0 | 0.00 | 0.00 | 0.00 | 94 | 1007.2 |
| 20260505081516 | 35 | 360 | 0.0 | 0.0 | 0.00 | 0.00 | 0.00 | 94 | 1007.2 |
| 20260505081007 | 34 | 360 | 0.0 | 2.0 | 0.00 | 0.00 | 0.00 | 94 | 1007.3 |
| 20260505080507 | 35 | 360 | 0.0 | 2.0 | 0.00 | 0.00 | 0.00 | 94 | 1007.4 |
| 20260505080016 | 35 | 360 | 0.0 | 2.0 | 0.00 | 0.00 | 0.00 | 94 | 1007.4 |
| 20260505075505 | 35 | 360 | 0.0 | 1.0 | 0.00 | 0.00 | 0.00 | 94 | 1007.3 |
| 20260505075007 | 35 | 360 | 0.0 | 0.0 | 0.00 | 0.00 | 0.00 | 94 | 1007.3 |
| 20260505074515 | 35 | 360 | 0.0 | 1.0 | 0.00 | 0.00 | 0.00 | 94 | 1007.3 |
| 20260505074007 | 35 | 360 | 0.0 | 1.0 | 0.00 | 0.00 | 0.00 | 94 | 1007.3 |
| 20260505073507 | 35 | 360 | 0.0 | 1.0 | 0.00 | 0.00 | 0.00 | 94 | 1007.3 |
| 20260505073028 | 35 | 360 | 0.0 | 0.0 | 0.00 | 0.00 | 0.00 | 94 | 1007.3 |
| 20260505072511 | 35 | 360 | 0.0 | 0.0 | 0.00 | 0.00 | 0.00 | 94 | 1007.3 |
| 20260505072009 | 35 | 360 | 0.0 | 2.0 | 0.00 | 0.00 | 0.00 | 94 | 1007.3 |
| 20260505071516 | 35 | 360 | 0.0 | 2.0 | 0.00 | 0.00 | 0.00 | 94 | 1007.3 |
| 20260505071004 | 35 | 360 | 0.0 | 2.0 | 0.00 | 0.00 | 0.00 | 94 | 1007.2 |
| 20260505070510 | 35 | 360 | 0.0 | 2.0 | 0.00 | 0.00 | 0.00 | 94 | 1007.2 |
| 20260505070020 | 35 | 360 | 0.0 | 1.0 | 0.00 | 0.00 | 0.00 | 94 | 1007.3 |
| 20260505065507 | 35 | 360 | 0.0 | 1.0 | 0.00 | 0.00 | 0.00 | 94 | 1007.3 |
| 20260505065008 | 35 | 360 | 0.0 | 0.0 | 0.00 | 0.00 | 0.00 | 94 | 1007.3 |
| 20260505064534 | 35 | 360 | 0.0 | 0.0 | 0.00 | 0.00 | 0.00 | 93 | 1007.4 |
| 20260505064005 | 36 | 360 | 0.0 | 2.0 | 0.00 | 0.00 | 0.00 | 93 | 1007.4 |
| 20260505063507 | 36 | 360 | 0.0 | 2.0 | 0.00 | 0.00 | 0.00 | 93 | 1007.4 |
| 20260505063018 | 36 | 360 | 0.0 | 2.0 | 0.00 | 0.00 | 0.00 | 94 | 1007.4 |
| 20260505062510 | 36 | 360 | 0.0 | 2.0 | 0.00 | 0.00 | 0.00 | 94 | 1007.3 |
| 20260505062011 | 36 | 360 | 0.0 | 0.0 | 0.00 | 0.00 | 0.00 | 94 | 1007.3 |
| 20260505061530 | 36 | 360 | 0.0 | 0.0 | 0.00 | 0.00 | 0.00 | 93 | 1007.3 |
| 20260505061008 | 36 | 360 | 0.0 | 0.0 | 0.00 | 0.00 | 0.00 | 93 | 1007.2 |
| 20260505060512 | 36 | 360 | 0.0 | 0.0 | 0.00 | 0.00 | 0.00 | 93 | 1007.2 |
| 20260505060019 | 36 | 360 | 0.0 | 2.0 | 0.00 | 0.00 | 0.00 | 93 | 1007.2 |
| 20260505055511 | 37 | 360 | 0.0 | 2.0 | 0.00 | 0.00 | 0.00 | 93 | 1007.3 |
| 20260505055010 | 37 | 360 | 0.0 | 2.0 | 0.00 | 0.00 | 0.00 | 93 | 1007.3 |
| 20260505054530 | 37 | 360 | 0.0 | 0.0 | 0.00 | 0.00 | 0.00 | 93 | 1007.2 |
| 20260505054012 | 37 | 360 | 0.0 | 0.0 | 0.00 | 0.00 | 0.00 | 93 | 1007.2 |
| 20260505053509 | 37 | 360 | 0.0 | 2.0 | 0.00 | 0.00 | 0.00 | 93 | 1007.2 |
| 20260505053018 | 37 | 360 | 0.0 | 2.0 | 0.00 | 0.00 | 0.00 | 93 | 1007.2 |
| 20260505052510 | 37 | 360 | 0.0 | 0.0 | 0.00 | 0.00 | 0.00 | 93 | 1007.1 |
| 20260505052011 | 37 | 360 | 0.0 | 0.0 | 0.00 | 0.00 | 0.00 | 93 | 1007.1 |
| 20260505051521 | 37 | 360 | 0.0 | 2.0 | 0.00 | 0.00 | 0.00 | 93 | 1007.1 |
| 20260505051009 | 38 | 360 | 0.0 | 2.0 | 0.00 | 0.00 | 0.00 | 93 | 1007.1 |
| 20260505050507 | 38 | 360 | 0.0 | 2.0 | 0.00 | 0.00 | 0.00 | 93 | 1007.2 |
| 20260505041510 | 39 | 360 | 0.0 | 2.0 | 0.00 | 0.00 | 0.00 | 92 | 1006.8 |
| 20260505041004 | 39 | 360 | 0.0 | 1.0 | 0.00 | 0.00 | 0.00 | 92 | 1006.8 |
| 20260505040506 | 39 | 360 | 0.0 | 2.0 | 0.00 | 0.00 | 0.00 | 92 | 1006.8 |
| 20260505040008 | 40 | 360 | 0.0 | 2.0 | 0.00 | 0.00 | 0.00 | 92 | 1006.8 |
| 20260505035506 | 40 | 360 | 0.0 | 2.0 | 0.00 | 0.00 | 0.00 | 92 | 1006.8 |
| 20260505035003 | 40 | 360 | 0.0 | 2.0 | 0.00 | 0.00 | 0.00 | 92 | 1006.8 |
| 20260505034513 | 40 | 360 | 0.0 | 2.0 | 0.00 | 0.00 | 0.00 | 92 | 1006.7 |
| 20260505034011 | 40 | 360 | 0.0 | 2.0 | 0.00 | 0.00 | 0.00 | 92 | 1006.7 |
| 20260505033507 | 41 | 360 | 0.0 | 2.0 | 0.00 | 0.00 | 0.00 | 92 | 1006.6 |
| 20260505033021 | 41 | 360 | 0.0 | 2.0 | 0.00 | 0.00 | 0.00 | 91 | 1006.7 |
| 20260505032507 | 41 | 360 | 0.0 | 1.0 | 0.00 | 0.00 | 0.00 | 91 | 1006.7 |
| 20260505032007 | 41 | 360 | 0.0 | 2.0 | 0.00 | 0.00 | 0.00 | 91 | 1006.7 |
| 20260505031539 | 41 | 360 | 0.0 | 2.0 | 0.00 | 0.00 | 0.00 | 91 | 1006.6 |
| 20260505031007 | 42 | 360 | 0.0 | 0.0 | 0.00 | 0.00 | 0.00 | 91 | 1006.7 |
| 20260505030504 | 42 | 360 | 0.0 | 0.0 | 0.00 | 0.00 | 0.00 | 91 | 1006.6 |
| 20260505030009 | 42 | 360 | 0.0 | 2.0 | 0.00 | 0.00 | 0.00 | 91 | 1006.6 |
| 20260505025504 | 42 | 360 | 0.0 | 2.0 | 0.00 | 0.00 | 0.00 | 91 | 1006.7 |
| 20260505025004 | 42 | 360 | 0.0 | 2.0 | 0.00 | 0.00 | 0.00 | 91 | 1006.9 |
| 20260505024520 | 42 | 360 | 0.0 | 2.0 | 0.00 | 0.00 | 0.00 | 91 | 1006.9 |
| 20260505024007 | 42 | 360 | 0.0 | 2.0 | 0.00 | 0.00 | 0.00 | 91 | 1007.0 |
| 20260505023507 | 43 | 360 | 0.0 | 2.0 | 0.00 | 0.00 | 0.00 | 91 | 1006.9 |
| 20260505023014 | 43 | 360 | 0.0 | 2.0 | 0.00 | 0.00 | 0.00 | 91 | 1006.9 |
| 20260505022507 | 43 | 360 | 0.0 | 2.0 | 0.00 | 0.00 | 0.00 | 91 | 1007.0 |
| 20260505022007 | 43 | 360 | 0.0 | 2.0 | 0.00 | 0.00 | 0.00 | 90 | 1007.1 |
| 20260505021525 | 43 | 360 | 0.0 | 2.0 | 0.00 | 0.00 | 0.00 | 90 | 1007.1 |
| 20260505021011 | 44 | 360 | 0.0 | 2.0 | 0.00 | 0.00 | 0.00 | 90 | 1007.1 |
| 20260505020507 | 44 | 360 | 0.0 | 2.0 | 0.00 | 0.00 | 0.00 | 90 | 1006.9 |
| 20260505020031 | 44 | 360 | 0.0 | 2.0 | 0.00 | 0.00 | 0.00 | 90 | 1006.9 |
| 20260505015508 | 44 | 360 | 0.0 | 2.0 | 0.00 | 0.00 | 0.00 | 90 | 1006.9 |
| 20260505015003 | 44 | 360 | 0.0 | 0.0 | 0.00 | 0.00 | 0.00 | 90 | 1006.8 |
| 20260505014509 | 44 | 360 | 0.0 | 0.0 | 0.00 | 0.00 | 0.00 | 90 | 1006.9 |
| 20260505014008 | 45 | 360 | 0.0 | 0.0 | 0.00 | 0.00 | 0.00 | 89 | 1006.8 |
| 20260505013509 | 45 | 360 | 0.0 | 0.0 | 0.00 | 0.00 | 0.00 | 89 | 1007.0 |
| 20260505013014 | 45 | 360 | 0.0 | 2.0 | 0.00 | 0.00 | 0.00 | 89 | 1006.8 |
| 20260505012505 | 45 | 360 | 0.0 | 2.0 | 0.00 | 0.00 | 0.00 | 89 | 1006.8 |
| 20260505012009 | 45 | 360 | 0.0 | 2.0 | 0.00 | 0.00 | 0.00 | 89 | 1006.8 |
| 20260505011529 | 46 | 360 | 0.0 | 2.0 | 0.00 | 0.00 | 0.00 | 89 | 1006.5 |
| 20260505011005 | 46 | 360 | 0.0 | 2.0 | 0.00 | 0.00 | 0.00 | 88 | 1006.4 |
| 20260505010508 | 46 | 360 | 0.0 | 2.0 | 0.00 | 0.00 | 0.00 | 88 | 1006.2 |
| 20260505010020 | 46 | 360 | 1.0 | 2.0 | 0.00 | 0.00 | 0.00 | 88 | 1006.2 |
| 20260505005507 | 47 | 360 | 0.0 | 2.0 | 0.00 | 0.00 | 0.00 | 87 | 1006.2 |
| 20260505005009 | 47 | 360 | 0.0 | 0.0 | 0.00 | 0.00 | 0.00 | 87 | 1006.2 |
| 20260505004542 | 47 | 360 | 0.0 | 2.0 | 0.00 | 0.00 | 0.00 | 87 | 1006.1 |
| 20260505004008 | 48 | 360 | 0.0 | 2.0 | 0.00 | 0.00 | 0.00 | 86 | 1006.1 |
| 20260505003511 | 48 | 360 | 0.0 | 2.0 | 0.00 | 0.00 | 0.00 | 85 | 1006.0 |
| 20260505003009 | 48 | 360 | 0.0 | 2.0 | 0.00 | 0.00 | 0.00 | 85 | 1005.9 |
| 20260505002514 | 49 | 360 | 0.0 | 2.0 | 0.00 | 0.00 | 0.00 | 84 | 1005.8 |
| 20260505002012 | 49 | 360 | 0.0 | 1.0 | 0.00 | 0.00 | 0.00 | 84 | 1005.7 |
| 20260505001519 | 50 | 360 | 0.0 | 2.0 | 0.00 | 0.00 | 0.00 | 84 | 1005.6 |
| 20260505001010 | 50 | 360 | 0.0 | 2.0 | 0.00 | 0.00 | 0.00 | 83 | 1005.5 |
| 20260505000508 | 50 | 360 | 0.0 | 2.0 | 0.00 | 0.00 | 0.00 | 84 | 1005.5 |
| 20260505000035 | 51 | 360 | 0.0 | 2.0 | 0.00 | 0.00 | 0.00 | 82 | 1005.4 |
| 20260504235508 | 51 | 360 | 0.0 | 2.0 | 0.00 | 0.00 | 0.00 | 81 | 1005.4 |
| 20260504235010 | 51 | 360 | 0.0 | 2.0 | 0.00 | 0.00 | 0.00 | 82 | 1005.4 |
| 20260504234524 | 52 | 360 | 0.0 | 2.0 | 0.00 | 0.00 | 0.00 | 83 | 1005.3 |
| 20260504234009 | 52 | 360 | 0.0 | 2.0 | 0.00 | 0.00 | 0.00 | 82 | 1005.4 |
| 20260504233508 | 52 | 360 | 0.0 | 2.0 | 0.00 | 0.00 | 0.00 | 81 | 1005.4 |
| 20260504233026 | 53 | 360 | 0.0 | 2.0 | 0.00 | 0.00 | 0.00 | 79 | 1005.3 |
| 20260504232510 | 53 | 360 | 0.0 | 2.0 | 0.00 | 0.00 | 0.00 | 79 | 1005.2 |
| 20260504232013 | 54 | 360 | 0.0 | 2.0 | 0.00 | 0.00 | 0.00 | 79 | 1005.1 |
| 20260504231510 | 54 | 360 | 0.0 | 2.0 | 0.00 | 0.00 | 0.00 | 77 | 1005.1 |
| 20260504231007 | 54 | 360 | 0.0 | 2.0 | 0.00 | 0.00 | 0.00 | 77 | 1005.0 |
| 20260504230505 | 55 | 360 | 0.0 | 2.0 | 0.00 | 0.00 | 0.00 | 76 | 1005.0 |
| 20260504230019 | 55 | 360 | 0.0 | 2.0 | 0.00 | 0.00 | 0.00 | 77 | 1005.0 |
| 20260504225507 | 55 | 360 | 0.0 | 2.0 | 0.00 | 0.00 | 0.00 | 75 | 1004.9 |
| 20260504225010 | 56 | 360 | 0.0 | 2.0 | 0.00 | 0.00 | 0.00 | 72 | 1004.9 |
| 20260504224520 | 56 | 360 | 0.0 | 2.0 | 0.00 | 0.00 | 0.00 | 71 | 1004.9 |
| 20260504224011 | 57 | 360 | 0.0 | 2.0 | 0.00 | 0.00 | 0.00 | 72 | 1004.9 |
| 20260504223508 | 57 | 360 | 0.0 | 2.0 | 0.00 | 0.00 | 0.00 | 69 | 1004.9 |
| 20260504223024 | 57 | 360 | 0.0 | 2.0 | 0.00 | 0.00 | 0.00 | 69 | 1005.0 |
| 20260504222510 | 58 | 360 | 0.0 | 2.0 | 0.00 | 0.00 | 0.00 | 67 | 1005.0 |
| 20260504222010 | 59 | 360 | 0.0 | 2.0 | 0.00 | 0.00 | 0.00 | 66 | 1005.0 |
| 20260504221525 | 59 | 360 | 0.0 | 2.0 | 0.00 | 0.00 | 0.00 | 64 | 1005.0 |
| 20260504221012 | 59 | 360 | 0.0 | 2.0 | 0.00 | 0.00 | 0.00 | 61 | 1004.9 |
| 20260504220510 | 60 | 360 | 0.0 | 3.0 | 0.00 | 0.00 | 0.00 | 57 | 1004.9 |
| 20260504220014 | 60 | 360 | 0.0 | 3.0 | 0.00 | 0.00 | 0.00 | 58 | 1004.8 |
| 20260504215506 | 61 | 360 | 1.0 | 9.0 | 0.00 | 0.00 | 0.00 | 54 | 1004.8 |
| 20260504215009 | 61 | 360 | 2.0 | 10.0 | 0.00 | 0.00 | 0.00 | 54 | 1004.8 |
| 20260504214518 | 61 | 360 | 2.0 | 10.0 | 0.00 | 0.00 | 0.00 | 53 | 1004.8 |
| 20260504214009 | 61 | 360 | 2.0 | 5.0 | 0.00 | 0.00 | 0.00 | 54 | 1004.8 |
| 20260504213506 | 61 | 360 | 2.0 | 7.0 | 0.00 | 0.00 | 0.00 | 55 | 1004.7 |
| 20260504213023 | 61 | 360 | 2.0 | 12.0 | 0.00 | 0.00 | 0.00 | 54 | 1004.8 |
| 20260504212512 | 61 | 360 | 3.0 | 12.0 | 0.00 | 0.00 | 0.00 | 54 | 1004.7 |
| 20260504212011 | 61 | 360 | 2.0 | 8.0 | 0.00 | 0.00 | 0.00 | 54 | 1004.8 |
| 20260504211525 | 61 | 360 | 3.0 | 8.0 | 0.00 | 0.00 | 0.00 | 55 | 1004.8 |
| 20260504211010 | 61 | 360 | 3.0 | 8.0 | 0.00 | 0.00 | 0.00 | 54 | 1004.7 |
| 20260504210510 | 61 | 360 | 1.0 | 7.0 | 0.00 | 0.00 | 0.00 | 57 | 1004.5 |
| 20260504210028 | 60 | 360 | 1.0 | 5.0 | 0.00 | 0.00 | 0.00 | 55 | 1004.6 |
| 20260504205504 | 60 | 360 | 2.0 | 12.0 | 0.00 | 0.00 | 0.00 | 56 | 1004.5 |
| 20260504205002 | 60 | 120 | 3.0 | 12.0 | 0.00 | 0.00 | 0.00 | 55 | 1004.5 |
| 20260504204504 | 61 | 298 | 3.0 | 12.0 | 0.00 | 0.00 | 0.00 | 55 | 1004.4 |
| 20260504204002 | 60 | 292 | 4.0 | 12.0 | 0.00 | 0.00 | 0.00 | 55 | 1004.4 |
| 20260504203502 | 61 | 198 | 1.0 | 12.0 | 0.00 | 0.00 | 0.00 | 57 | 1004.4 |
| 20260504203006 | 60 | 338 | 3.0 | 11.0 | 0.00 | 0.00 | 0.00 | 56 | 1004.4 |
| 20260504202506 | 59 | 360 | 2.0 | 8.0 | 0.00 | 0.00 | 0.00 | 58 | 1004.5 |
| 20260504202007 | 59 | 360 | 1.0 | 5.0 | 0.00 | 0.00 | 0.00 | 61 | 1004.5 |
| 20260504201506 | 58 | 360 | 2.0 | 6.0 | 0.00 | 0.00 | 0.00 | 61 | 1004.5 |
| 20260504201004 | 58 | 360 | 1.0 | 6.0 | 0.00 | 0.00 | 0.00 | 60 | 1004.6 |
| 20260504200508 | 58 | 360 | 2.0 | 6.0 | 0.00 | 0.00 | 0.00 | 61 | 1004.5 |
| 20260504200010 | 58 | 360 | 1.0 | 6.0 | 0.00 | 0.00 | 0.00 | 63 | 1004.5 |
| 20260504195505 | 58 | 360 | 3.0 | 6.0 | 0.00 | 0.00 | 0.00 | 61 | 1004.4 |
| 20260504195006 | 58 | 360 | 0.0 | 9.0 | 0.00 | 0.00 | 0.00 | 63 | 1004.4 |
| 20260504194504 | 57 | 360 | 3.0 | 10.0 | 0.00 | 0.00 | 0.00 | 62 | 1004.4 |
| 20260504194003 | 57 | 360 | 2.0 | 10.0 | 0.00 | 0.00 | 0.00 | 63 | 1004.4 |
| 20260504193502 | 57 | 360 | 3.0 | 10.0 | 0.00 | 0.00 | 0.00 | 62 | 1004.3 |
| 20260504193004 | 57 | 360 | 2.0 | 11.0 | 0.00 | 0.00 | 0.00 | 62 | 1004.3 |
| 20260504192502 | 57 | 360 | 2.0 | 11.0 | 0.00 | 0.00 | 0.00 | 62 | 1004.4 |
| 20260504192003 | 58 | 360 | 4.0 | 9.0 | 0.00 | 0.00 | 0.00 | 61 | 1004.3 |
| 20260504191504 | 58 | 360 | 2.0 | 6.0 | 0.00 | 0.00 | 0.00 | 60 | 1004.4 |
| 20260504191003 | 58 | 360 | 1.0 | 12.0 | 0.00 | 0.00 | 0.00 | 60 | 1004.4 |
| 20260504190506 | 58 | 360 | 4.0 | 15.0 | 0.00 | 0.00 | 0.00 | 60 | 1004.3 |
| 20260504190007 | 59 | 360 | 3.0 | 15.0 | 0.00 | 0.00 | 0.00 | 58 | 1004.4 |
| 20260504185504 | 60 | 360 | 4.0 | 12.0 | 0.00 | 0.00 | 0.00 | 56 | 1004.3 |
| 20260504185004 | 61 | 360 | 5.0 | 11.0 | 0.00 | 0.00 | 0.00 | 56 | 1004.5 |
| 20260504184515 | 62 | 360 | 2.0 | 11.0 | 0.00 | 0.00 | 0.00 | 56 | 1004.4 |
| 20260504184006 | 61 | 360 | 4.0 | 11.0 | 0.00 | 0.00 | 0.00 | 57 | 1004.4 |
| 20260504183510 | 60 | 360 | 5.0 | 11.0 | 0.00 | 0.00 | 0.00 | 59 | 1004.4 |
| 20260504183003 | 58 | 15 | 4.0 | 13.0 | 0.00 | 0.00 | 0.00 | 61 | 1004.4 |
| 20260504182502 | 57 | 360 | 3.0 | 13.0 | 0.00 | 0.00 | 0.00 | 63 | 1004.5 |
| 20260504182003 | 57 | 360 | 2.0 | 11.0 | 0.00 | 0.00 | 0.00 | 64 | 1004.5 |
| 20260504181504 | 57 | 360 | 4.0 | 12.0 | 0.00 | 0.00 | 0.00 | 63 | 1004.5 |
| 20260504181004 | 56 | 360 | 5.0 | 12.0 | 0.00 | 0.00 | 0.00 | 64 | 1004.6 |
| 20260504180503 | 56 | 360 | 4.0 | 10.0 | 0.00 | 0.00 | 0.00 | 65 | 1004.6 |
| 20260504180010 | 55 | 360 | 2.0 | 11.0 | 0.00 | 0.00 | 0.00 | 68 | 1004.7 |
| 20260504175503 | 55 | 360 | 2.0 | 15.0 | 0.00 | 0.00 | 0.00 | 66 | 1004.7 |
| 20260504175005 | 55 | 360 | 2.0 | 15.0 | 0.00 | 0.00 | 0.00 | 67 | 1004.9 |
| 20260504174509 | 55 | 360 | 3.0 | 8.0 | 0.00 | 0.01 | 0.00 | 66 | 1004.8 |
| 20260504174005 | 55 | 360 | 2.0 | 6.0 | 0.00 | 0.01 | 0.00 | 68 | 1004.9 |
| 20260504173506 | 54 | 360 | 1.0 | 5.0 | 0.00 | 0.01 | 0.00 | 68 | 1004.9 |
| 20260504173014 | 54 | 360 | 0.0 | 6.0 | 0.00 | 0.01 | 0.00 | 69 | 1005.0 |
| 20260504172507 | 54 | 360 | 2.0 | 6.0 | 0.00 | 0.01 | 0.00 | 68 | 1005.0 |
| 20260504172009 | 54 | 360 | 1.0 | 6.0 | 0.00 | 0.01 | 0.00 | 69 | 1005.1 |
| 20260504171504 | 54 | 360 | 3.0 | 6.0 | 0.00 | 0.01 | 0.00 | 68 | 1005.1 |